Voltar ao catálogo

INTELSAT 4A-F3

AtivoComunicaçõesGEO
NORAD 10557·PAYLOAD· XX

Lançado Jan 7, 1978 de Cape Canaveral Space Force Station

Loading…

TLE

AtualizadoSource: Space-Track

Época: Sep 14, 2026, 12:44 UTC

1 10557U 78002A   26257.53084872 -.00000352  00000-0  00000+0 0  9994
2 10557   8.8295 312.1338 0004958 290.9315  77.9028  0.99916021 49641

Acompanhe INTELSAT 4A-F3 em tempo real com AllMySat

Download on the App Store